User: anonymous   Login
Location: Bergen
(60.3910°N, 5.3250°E)
Time: 19:56:39
(UTC+01:00)
Language:

Cosmos 1943 - Orbit

View from above orbital plane
View from above orbital plane
View from above satellite
View from above satellite

Ground track
Ground track

The orbit data is extracted from the following two-line orbital elements,

1 19119U 88039A   14303.13302096 -.00000110  00000-0 -32241-4 0  2829
2 19119 071.0031 319.8304 0009174 074.4438 342.0048 14.14958373366140
Epoch (UTC): 30 October 2014 03:11:33
Eccentricity: 0.0009174
inclination: 71.0031°
perigee height: 836 km
apogee height: 849 km
right ascension of ascending node: 319.8304°
argument of perigee: 74.4438°
revolutions per day: 14.14958373
mean anomaly at epoch: 342.0048°
orbit number at epoch: 36614

The dashed part of the orbit path shows where the satellite is in the earth's shadow,  

DLR